Zurück zum Katalog

CZ-3B R/B

AktivHEO
NORAD 41022·ROCKET BODY·🇨🇳 China

Gestartet Nov 3, 2015 von Xichang Satellite Launch Center

Loading…

Nächste Überflüge (nächste 24 Stunden)

TLE

AktuellSource: Space-Track

Epoche: Sep 13, 2026, 20:08 UTC

1 41022U 15063B   26256.83931576  .00017863  00000-0  12300-2 0  9990
2 41022  26.8280 127.6942 6105466 201.9231 113.2345  3.93126984112372

Verfolge CZ-3B R/B in Echtzeit mit AllMySat

Download on the App Store